Location: *
(45.9500°N, 9.0833°E)
Time: 19:49:55
(UTC+00:00)

Cosmos 1844 - Pass Details

Date: 03 March 2021
Orbit: 822 x 868 km, 70.9° (Epoch: 20 April)

Event Time Altitude Azimuth Distance (km) Brightness Sun altitude
Rises 18:33:39 0° 334° (NNW) 3,459 7.3 -14.8°
Reaches altitude 10° 18:36:10 10° 337° (NNW) 2,515 6.5 -15.2°
Maximum altitude 18:41:56 69° 61° (ENE) 918 3.7 -16.2°
Enters shadow 18:46:37 16° 143° (SE) 2,105 5.4 -17.0°
